This is the latest recevied weather packets stored in our database for station/object BARLOW-WX. If no packets are shown the sender has not sent any weather packets the latest 10 day(s).
| Time | Temp. | Humidity | Pressure | Rain* | Wind** | Luminosity | Snow |
|---|---|---|---|---|---|---|---|
| 1787574679 | 12.22° C | 90% | 987.7 hPa | 0 mm | - | - | - |
| 1787573780 | 11.11° C | 90% | 987.7 hPa | 0 mm | - | - | - |
| 1787572881 | 10.56° C | 90% | 987.7 hPa | 0 mm | - | - | - |
| 1787571980 | 10° C | 91% | 988.2 hPa | 0 mm | - | - | - |
| 1787571079 | 10° C | 91% | 988.2 hPa | 0 mm | - | - | - |
| 1787570179 | 9.44° C | 91% | 988.2 hPa | 0 mm | - | - | - |
| 1787569279 | 10° C | 91% | 988.2 hPa | 0 mm | - | - | - |
| 1787568379 | 10° C | 89% | 987.6 hPa | 0 mm | - | - | - |
| 1787567480 | 10° C | 89% | 988.1 hPa | 0 mm | - | - | - |
| 1787566580 | 10° C | 89% | 988.1 hPa | 0 mm | - | - | - |
| 1787565679 | 10° C | 89% | 988.1 hPa | 0 mm | - | - | - |
| 1787564804 | 10° C | 87% | 987.6 hPa | 0 mm | - | - | - |
| 1787563894 | 10° C | 87% | 987.6 hPa | 0 mm | - | - | - |
| 1787562999 | 10.56° C | 87% | 987.6 hPa | 0 mm | - | - | - |
| 1787562101 | 10.56° C | 87% | 987.6 hPa | 0 mm | - | - | - |
| 1787561206 | 10.56° C | 83% | 987.2 hPa | 0 mm | - | - | - |
| 1787560288 | 10.56° C | 84% | 987.3 hPa | 0 mm | - | - | - |
| 1787559396 | 10.56° C | 84% | 987.4 hPa | 0 mm | - | - | - |
| 1787558482 | 11.11° C | 85% | 986.9 hPa | 0 mm | - | - | - |
| 1787557891 | 11.11° C | 83% | 986.9 hPa | 0 mm | - | - | - |
| 1787556679 | 11.11° C | 83% | 986.9 hPa | 0 mm | - | - | - |
| 1787555779 | 11.11° C | 83% | 986.9 hPa | 0 mm | - | - | - |
| 1787554879 | 11.67° C | 83% | 986.9 hPa | 0 mm | - | - | - |
| 1787553979 | 11.67° C | 84% | 987 hPa | 0 mm | - | - | - |
| 1787553079 | 11.67° C | 84% | 987.1 hPa | 0 mm | - | - | - |
* Rain latest hour (hover to see other rain measurements)
** Current wind speed in m/s (hover to see current wind gust speed)